Regional Weather Roundup
Issued by NWS Wakefield, VA

Home | Current Version | Previous Version | Text Only | Print | Product List | Glossary On
Versions: 1 2 3 4 5 6 7 8 9 10 11 12 13 14 15 16 17 18 19 20 21 22 23 24 25 26 27 28 29 30 31 32 33 34 35 36 37 38 39 40 41 42 43 44 45 46 47 48 49 50
000
ASUS41 KAKQ 222315
RWRAKQ

REGIONAL WEATHER ROUNDUP
NATIONAL WEATHER SERVICE WAKEFIELD VA
700 PM EDT FRI MAY 22 2015

Note: "fair" indicates few or no clouds below 12,000 feet with no
significant weather and/or obstructions to visibility. * = Denotes
station may not report precipitation (e.g., rain,snow,etc.),
thunder or fog.

VAZ042-051-052>054-056-230000-
NORTHERN VIRGINIA

CITY           SKY/WX    TMP DP  RH WIND       PRES   REMARKS
WASH NATIONAL  MOSUNNY   77  38  24 W17G28    30.10R
DULLES         MOSUNNY   73  39  29 W15G24    30.11R
FORT BELVOIR   MOSUNNY   75  42  31 W8        30.10R
QUANTICO       MOSUNNY   75  43  31 W6        30.12R
FREDERICKSBRG* SUNNY     74  46  36 SW8       30.11S
STAFFORD*      PTSUNNY   71  44  37 SW3       30.16R
WARRENTON      CLOUDY    73  48  41 NW5       30.12R
CULPEPER*      CLOUDY    72  40  32 NW8       30.13R
MANASSAS*      MOSUNNY   75  39  27 W16       30.11R
LEESBURG*      MOSUNNY   72  45  37 W8G24     30.11S
WINCHESTER     SUNNY     70  32  24 W20G31    30.14R
FRONT ROYAL*   FAIR      70  41  35 W6        30.13S
LURAY*         MOCLDY    72  43  35 W5        30.15R
$$

VAZ048-049-060>072-079>083-230000-
CENTRAL AND SOUTH CENTRAL VIRGINIA

CITY           SKY/WX    TMP DP  RH WIND       PRES   REMARKS
RICHMOND       MOSUNNY   74  41  30 SW8       30.15R
CHESTERFIELD*  NOT AVBL
PETERSBURG*    SUNNY     74  42  31 SW5       30.17R
HANOVER        SUNNY     72  43  35 SW8       30.16R
TAPPAHANNOCK*  SUNNY     74  35  24 SW6       30.14S
QUINTON*       FAIR      73  42  33 SW3       30.15R
CHARLOTTSVILLE SUNNY     74  38  27 W3        30.13R
GORDONSVILLE*  MOCLDY    70  48  45 S6        30.13R
ORANGE*        MOSUNNY   73  46  38 S8        30.14R
LOUISA*        MOSUNNY   73  46  38 SW3       30.13R
BUMPASS*       FAIR      71  47  41 SW5       30.14R
FARMVILLE*     SUNNY     73  43  34 SW6       30.15S
CREWE*         FAIR      72  39  30 CALM      30.17S
FORT PICKETT*  FAIR      72  42  33 CALM      30.17S
CHASE CITY*    FAIR      73  46  37 W5        30.18R
CLARKSVILLE*   FAIR      72  43  35 W3        30.18S
SOUTH HILL*    SUNNY     72  42  34 CALM      30.24R
LAWRENCEVILLE* FAIR      72  45  37 CALM      30.18R
EMPORIA*       SUNNY     70  43  37 SW3       30.19R
$$

VAZ088>098-230000-
SOUTHEAST VIRGINIA

CITY           SKY/WX    TMP DP  RH WIND       PRES   REMARKS
NORFOLK        SUNNY     71  43  36 VRB5      30.16R
VIRGINIA BEACH MOSUNNY   70  44  39 SW8       30.16R
NORFOLK NAVAL  MOSUNNY   75  45  34 SW6       30.17S
WEST POINT*    SUNNY     75  35  23 W6        30.16S
SALUDA*        FAIR      72  44  37 CALM      30.13S
NEWPORT NEWS   SUNNY     75  46  35 SW9       30.15S
LANGLEY AFB    SUNNY     71  47  43 W8        30.15R
FORT EUSTIS    SUNNY     72  49  45 W5        30.14R
WILLIAMSBURG*  SUNNY     75  48  38 W6        30.16S
HR EXEC AP*    FAIR      72  48  43 CALM      30.18S
FRANKLIN*      SUNNY     71  43  36 W3        30.18R
WAKEFIELD      SUNNY     73  46  38 W3        30.17R
$$

VAZ020-022-025-037-045-230000-
WEST CENTRAL AND SOUTHWEST VIRGINIA

CITY           SKY/WX    TMP DP  RH WIND       PRES   REMARKS
STAUNTON*      SUNNY     71  36  28 NW13      30.18R
WAYNESBORO*    FAIR      70  37  29 NW5       30.16S
HOT SPRINGS VA MOSUNNY   59  34  39 W12G22    30.24S
LYNCHBURG      SUNNY     71  41  33 VRB5      30.19R
DANVILLE       SUNNY     75  41  29 NW7       30.19S
SOUTH BOSTON*  FAIR      73  38  28 W5        30.19R
MARTINSVILLE   SUNNY     73  40  30 N7        30.23R
ROANOKE        MOSUNNY   71  38  29 W12       30.22R
BLACKSBURG     MOSUNNY   65  41  41 W7        30.27R
DUBLIN*        SUNNY     67  42  39 NW8       30.26S
MARION*        SUNNY     65  40  39 W7        30.30S
HILLSVILLE*    SUNNY     64  37  36 NW12      30.27R
RICHLANDS*     FAIR      62  17  17 NW7       30.29R
WISE*          SUNNY     64  36  34 NW3       30.30S
ABINGDON*      SUNNY     69  38  32 NW5       30.27S
$$

MDZ021>025-VAZ099-100-230000-
SOUTHERN MARYLAND AND THE DELMARVA PENINSULA

CITY           SKY/WX    TMP DP  RH WIND       PRES   REMARKS
PATUXENT RIVER MOSUNNY   72  44  36 W10G20    30.10S
BAY BRIDGE APT   N/A    N/A N/A N/A W10G21    30.08R
LEONARDTOWN    SUNNY     72  43  35 W9        30.13R
DOVER          MOSUNNY   72  47  40 SW16      30.02S
GEORGETOWN     SUNNY     71  44  37 W10       30.08R
EASTON         SUNNY     72  48  43 W8        30.12R
CAMBRIDGE      SUNNY     72  43  35 W7        30.09R
SALISBURY      SUNNY     70  43  37 SW13G22   30.10R
OCEAN CITY     SUNNY     70  45  40 W8        30.10R
WALLOPS ISLAND SUNNY     69  48  47 SW6       30.13R
ACCOMACK*      SUNNY     70  50  49 SW7       30.13S
$$

NCZ012>017-030>032-230000-
NORTH CENTRAL AND EASTERN NORTH CAROLINA

CITY           SKY/WX    TMP DP  RH WIND       PRES   REMARKS
ROANOKE RAPIDS FAIR      70  45  40 NW5       30.19R
RALEIGH        MOSUNNY   72  43  35 NW6       30.20R
ELIZABETH CITY SUNNY     69  50  50 S6        30.18R
AHOSKIE*       SUNNY     67  47  49 CALM      30.19R
EDENTON*       SUNNY     72  47  40 NW6       30.19R
CURRITUCK*     SUNNY     69  46  43 SE5       30.19R
KILL DEVIL HLS SUNNY     66  45  46 E3        30.19R
MANTEO         SUNNY     66  44  45 E6        30.20R
CAPE HATTERAS  SUNNY     65  40  39 E6        30.20S
TARBORO*       FAIR      73  45  36 CALM      30.20R
GOLDSBORO      SUNNY     72  45  37 CALM      30.17R
WASHINGTON     SUNNY    N/A N/A N/A CALM      30.20R
GREENVILLE     SUNNY     72  45  37 CALM      30.21R
NEW BERN       SUNNY     71  47  42 N6        30.20R
WILMINGTON     MOSUNNY   70  57  63 CALM      30.18S
$$

VAZ048-230000-
ELSEWHERE

CITY           SKY/WX    TMP DP  RH WIND       PRES   REMARKS
HARRISBURG PA  MOSUNNY   70  37  29 NW21G26   30.04R
BALTIMORE      MOSUNNY   72  41  32 NW15G21   30.08R
ANNAPOLIS      PTSUNNY   73  39  29 W12G20    30.08R
ANDREWS AFB    MOSUNNY   74  40  30 W15       30.09R
PHILADELPHIA   MOSUNNY   74  37  26 W17G25    30.02R
HENDERSON NC   SUNNY     71  38  29 W3        30.20S
GREENSBORO     MOSUNNY   73  38  27 CALM      30.20R
ROCKY MOUNT    SUNNY     73  42  32 NW6       30.20R
$$

VAZ100-230000-
MARINE

STATION/POSITION TIME  TEMP    WIND        PRES    WAVE   SWELL
                       AIR SEA DIR/SP/G            HT/PER HT/PER
                 (UTC) (F)     (DEG/KT/KT) (MB)    (FT/S) (FT/S)
BRANDYWINE LGT   2200   69 63  270/ 18/ 21 1017.5S
CAPE MAY NJ      2200   69 69  260/ 14/ 16 1017.1S
LEWES DE         2200   72 63  250/ 15/ 24 1017.6F
15NM E FENWICK I 2250   65 60              1018.4R   2/ 4
OCEAN-CITY-INLET 2200   69 63  260/ 12/ 15 1018.4S
WACHAPREAGUE VA  2200   71 71  270/  7/ 10 1020.2R
THOMAS POINT MD  2300   74 66  290/ 17/ 19 1019.0R
GOOSES REEF MD   2300   71 66  260/ 12/ 16 1020.0R   2/ 3
SOLOMONS ISLAND  2200      69                N/A
BISHOPS HEAD MD  2200   69 70  250/ 12/ 14 1019.1F
PINEY POINT MD   2200          300/  8/ 10   N/A
CAMBRIDGE MD     2200   72 70  230/ 10/ 17 1018.5F
LEWISETTA VA     2200   72 70              1019.5R
RAPPAHANNOCK LGT 2200          180/ 10/ 11 1020.8R
STINGRAY PT      2300   73 70  270/ 10/ 14 1020.5R   1
YORK RVR RNG VA  2200   71     250/ 12/ 13 1020.0S
YORKTOWN VA      2200   71 71  240/  9/ 11 1020.3S
JAMESTOWN VA     2300   72 74  260/  8/ 10 1020.2R
DOMINION TERM VA 2200   73     260/  2/  2 1021.1S
KIPTOPEKE VA     2200      72  220/  8/  9   N/A
CHES BAY BRIDGE  2200   70 69  250/ 11/ 13 1020.5S
CAPE HENRY VA    2200   71     260/  6/ 10 1019.6F
CHESAPEAKE LGHT  2200   64     190/  6/  7 1021.6F
WILLOUBY STN VA  2200   70     220/  8/  8 1021.8S
CAPE HENRY BUOY  2228      63                N/A     2/ 7
1ST LANDING BUOY 2300      68              1020.8R
CAPE CHARLES BUO 2226      66                N/A     2/ 7   2/ 7
OFFSHORE WE BUOY 2211      62                N/A     3/ 7   2/ 7
64NM E OF VA BCH 2250   61 61  210/  8/  8 1021.4R   3/ 7   3/ 7
DUCK PIER NC     2200   67 68  110/  6/  7 1021.0S
44100 DUCK FRF   2224      62                N/A     3/ 7
44056 DUCK FRF   2211      65                N/A     3/ 7
OREGON INLET NC  2200   64 68   50/  7/  9 1022.0S
HATTERAS NC      2200   67 72  350/  4/  7 1022.0R
DIAMOND SHLS NC  2250   67 77   30/  8/ 12 1022.5R   3/ 8   3/ 8
CAPE LOOKOUT NC  2300   67      70/  6/  7 1022.2R
$$


USA.gov is the U.S. government's official web portal to all federal, state and local government web resources and services.